Location: Bay Ridge
(40.6340°N, 74.0146°W)
Time: 21:46:14
(UTC+00:00)

MSX - Pass Details

Date: 15 November 2019
Orbit: 895 x 906 km, 98.8° (Epoch: 12 December)

Event Time Altitude Azimuth Distance (km) Brightness Sun altitude
Rises 09:43:46 0° 5° (N) 3,524 6.9 -22.5°
Reaches altitude 10° 09:46:19 10° 358° (N) 2,581 6.1 -22.0°
Enters shadow 09:51:29 39° 295° (WNW) 1,324 4.2 -21.1°
